• In Lithuania
  • List of Countries
  • For 7 days
  • Water Temperature
  • Satellite Maps
  • Weather Map
  • Weather Widgets
  • user-avatar
    Login

    Hourly Weather Pleven

    Today, 17 October, Wednesday

    Time Temperature Precipitation Wind Pressure Humidity
    00:00 +14°C° 0 mm 1 mps 750 mmHg 56%
    01:00 +13°C° 0 mm 1 mps 750 mmHg 57%
    02:00 +12°C° 0 mm 0 mps 750 mmHg 56%
    03:00 +12°C° 0 mm 0 mps 750 mmHg 58%
    04:00 +12°C° 0 mm 0 mps 750 mmHg 59%
    05:00 +11°C° 0 mm 0 mps 750 mmHg 60%
    06:00 +12°C° 0 mm 0 mps 750 mmHg 58%
    07:00 +13°C° 0 mm 0 mps 750 mmHg 57%
    08:00 +14°C° 0 mm 0 mps 750 mmHg 55%
    09:00 +16°C° 0 mm 1 mps 750 mmHg 50%
    10:00 +19°C° 0 mm 1 mps 750 mmHg 46%
    11:00 +21°C° 0 mm 1 mps 749 mmHg 42%
    12:00 +21°C° 0 mm 2 mps 749 mmHg 41%
    13:00 +23°C° 0 mm 2 mps 749 mmHg 41%
    14:00 +24°C° 0 mm 2 mps 748 mmHg 40%
    15:00 +23°C° 0 mm 2 mps 748 mmHg 43%
    16:00 +21°C° 0 mm 2 mps 748 mmHg 47%
    17:00 +21°C° 0 mm 1 mps 748 mmHg 50%
    18:00 +20°C° 0 mm 1 mps 748 mmHg 54%
    19:00 +19°C° 0 mm 1 mps 748 mmHg 59%
    20:00 +18°C° 0 mm 1 mps 748 mmHg 63%
    21:00 +16°C° 0 mm 1 mps 748 mmHg 65%
    22:00 +16°C° 0 mm 1 mps 748 mmHg 66%
    23:00 +15°C° 0 mm 0 mps 748 mmHg 68%

    Tomorrow, 18 October, Thursday

    Time Temperature Precipitation Wind Pressure Humidity
    00:00 +14°C° 0 mm 0 mps 748 mmHg 70%
    01:00 +14°C° 0 mm 0 mps 748 mmHg 72%
    02:00 +14°C° 0 mm 0 mps 748 mmHg 73%
    03:00 +13°C° 0 mm 0 mps 748 mmHg 75%
    04:00 +13°C° 0 mm 0 mps 747 mmHg 77%
    05:00 +12°C° 0 mm 0 mps 747 mmHg 79%
    06:00 +13°C° 0 mm 0 mps 747 mmHg 77%
    07:00 +14°C° 0 mm 0 mps 747 mmHg 74%
    08:00 +14°C° 0 mm 0 mps 747 mmHg 72%
    09:00 +18°C° 0 mm 1 mps 747 mmHg 66%
    10:00 +20°C° 0 mm 1 mps 747 mmHg 60%
    11:00 +22°C° 0 mm 1 mps 747 mmHg 54%
    12:00 +23°C° 0 mm 2 mps 747 mmHg 51%
    13:00 +23°C° 0 mm 2 mps 746 mmHg 48%
    14:00 +24°C° 0 mm 2 mps 746 mmHg 45%
    15:00 +23°C° 0 mm 2 mps 746 mmHg 48%
    16:00 +23°C° 0 mm 2 mps 745 mmHg 50%
    17:00 +22°C° 0 mm 1 mps 745 mmHg 53%
    18:00 +21°C° 0 mm 1 mps 745 mmHg 58%
    19:00 +19°C° 0 mm 1 mps 746 mmHg 62%
    20:00 +18°C° 0 mm 1 mps 746 mmHg 67%
    21:00 +16°C° 0 mm 1 mps 746 mmHg 69%
    22:00 +16°C° 0 mm 1 mps 746 mmHg 70%
    23:00 +16°C° 0 mm 1 mps 746 mmHg 72%

    Day after tomorrow, 19 October, Friday

    Time Temperature Precipitation Wind Pressure Humidity
    00:00 +15°C° 0 mm 1 mps 746 mmHg 73%
    01:00 +15°C° 0 mm 1 mps 746 mmHg 74%
    02:00 +15°C° 0 mm 1 mps 746 mmHg 75%
    03:00 +15°C° 0 mm 1 mps 746 mmHg 76%
    04:00 +14°C° 0 mm 1 mps 746 mmHg 77%
    05:00 +14°C° 0 mm 1 mps 746 mmHg 78%
    06:00 +15°C° 0 mm 1 mps 746 mmHg 76%
    07:00 +15°C° 0 mm 1 mps 746 mmHg 73%
    08:00 +16°C° 0 mm 1 mps 746 mmHg 71%
    09:00 +19°C° 0 mm 1 mps 746 mmHg 64%
    10:00 +19°C° 0 mm 2 mps 746 mmHg 58%
    11:00 +21°C° 0 mm 2 mps 746 mmHg 51%
    12:00 +23°C° 0 mm 2 mps 746 mmHg 49%
    13:00 +23°C° 0 mm 2 mps 746 mmHg 47%
    14:00 +24°C° 0 mm 2 mps 746 mmHg 44%
    15:00 +23°C° 0 mm 2 mps 745 mmHg 47%
    16:00 +23°C° 0 mm 1 mps 745 mmHg 49%
    17:00 +22°C° 0 mm 1 mps 745 mmHg 51%
    18:00 +21°C° 0 mm 1 mps 746 mmHg 55%
    19:00 +19°C° 0 mm 1 mps 746 mmHg 58%
    20:00 +17°C° 0 mm 2 mps 746 mmHg 62%
    21:00 +17°C° 0 mm 2 mps 746 mmHg 62%
    22:00 +16°C° 0 mm 2 mps 747 mmHg 63%
    23:00 +16°C° 0 mm 2 mps 747 mmHg 64%

    20 October, Saturday

    Time Temperature Precipitation Wind Pressure Humidity
    00:00 +16°C° 0 mm 2 mps 747 mmHg 64%
    01:00 +14°C° 0 mm 3 mps 747 mmHg 65%
    02:00 +14°C° 0 mm 3 mps 747 mmHg 66%
    03:00 +14°C° 0 mm 3 mps 747 mmHg 67%
    04:00 +13°C° 0 mm 3 mps 747 mmHg 68%
    05:00 +13°C° 0 mm 3 mps 747 mmHg 69%
    06:00 +13°C° 0.1 mm 3 mps 747 mmHg 67%
    07:00 +14°C° 0.1 mm 3 mps 748 mmHg 66%
    08:00 +14°C° 0.1 mm 3 mps 748 mmHg 65%
    09:00 +17°C° 0.1 mm 3 mps 748 mmHg 59%
    10:00 +18°C° 0.1 mm 4 mps 748 mmHg 54%
    11:00 +20°C° 0.1 mm 4 mps 748 mmHg 48%
    12:00 +20°C° 0.1 mm 4 mps 748 mmHg 47%
    13:00 +21°C° 0.1 mm 4 mps 748 mmHg 47%
    14:00 +21°C° 0.1 mm 4 mps 748 mmHg 46%
    15:00 +20°C° 0.1 mm 3 mps 748 mmHg 49%
    16:00 +20°C° 0.1 mm 3 mps 748 mmHg 53%
    17:00 +19°C° 0.1 mm 2 mps 748 mmHg 57%
    18:00 +17°C° 0.2 mm 2 mps 748 mmHg 63%
    19:00 +16°C° 0.2 mm 1 mps 749 mmHg 69%
    20:00 +15°C° 0.2 mm 1 mps 749 mmHg 75%
    21:00 +14°C° 0.2 mm 1 mps 749 mmHg 77%
    22:00 +14°C° 0.2 mm 1 mps 749 mmHg 78%
    23:00 +14°C° 0.2 mm 1 mps 750 mmHg 80%

    21 October, Sunday

    Time Temperature Precipitation Wind Pressure Humidity
    00:00 +14°C° 0.1 mm 1 mps 750 mmHg 81%
    01:00 +14°C° 0.1 mm 1 mps 750 mmHg 82%
    02:00 +13°C° 0.1 mm 1 mps 750 mmHg 83%
    03:00 +13°C° 0.1 mm 1 mps 750 mmHg 84%
    04:00 +13°C° 0.1 mm 1 mps 750 mmHg 85%
    05:00 +13°C° 0.1 mm 1 mps 750 mmHg 86%
    06:00 +13°C° 0 mm 1 mps 750 mmHg 85%
    07:00 +13°C° 0 mm 1 mps 750 mmHg 84%
    08:00 +14°C° 0 mm 1 mps 750 mmHg 82%
    09:00 +14°C° 0.1 mm 1 mps 750 mmHg 78%
    10:00 +15°C° 0.1 mm 1 mps 750 mmHg 73%
    11:00 +16°C° 0.1 mm 2 mps 750 mmHg 69%
    12:00 +17°C° 0 mm 2 mps 750 mmHg 65%
    13:00 +18°C° 0 mm 2 mps 749 mmHg 60%
    14:00 +18°C° 0 mm 2 mps 749 mmHg 56%
    15:00 +18°C° 0.2 mm 2 mps 748 mmHg 59%
    16:00 +19°C° 0.2 mm 1 mps 748 mmHg 61%
    17:00 +18°C° 0.2 mm 1 mps 748 mmHg 63%
    18:00 +16°C° 0.4 mm 1 mps 748 mmHg 65%
    19:00 +15°C° 0.4 mm 2 mps 748 mmHg 68%
    20:00 +15°C° 0.4 mm 2 mps 748 mmHg 70%
    21:00 +14°C° 0.2 mm 2 mps 748 mmHg 70%
    22:00 +13°C° 0.2 mm 2 mps 748 mmHg 70%
    23:00 +12°C° 0.2 mm 3 mps 748 mmHg 70%

    22 October, Monday

    Time Temperature Precipitation Wind Pressure Humidity
    00:00 +11°C° 0.1 mm 3 mps 748 mmHg 73%
    01:00 +10°C° 0.1 mm 3 mps 748 mmHg 76%
    02:00 +9°C° 0.1 mm 3 mps 748 mmHg 79%
    03:00 +9°C° 0.2 mm 2 mps 748 mmHg 81%
    04:00 +8°C° 0.2 mm 2 mps 748 mmHg 82%
    05:00 +8°C° 0.2 mm 2 mps 748 mmHg 83%
    06:00 +8°C° 0.3 mm 2 mps 748 mmHg 82%
    07:00 +9°C° 0.3 mm 1 mps 748 mmHg 81%
    08:00 +9°C° 0.3 mm 1 mps 748 mmHg 80%
    09:00 +9°C° 0.6 mm 1 mps 748 mmHg 79%
    10:00 +8°C° 0.6 mm 2 mps 748 mmHg 79%
    11:00 +9°C° 0.6 mm 2 mps 748 mmHg 78%
    12:00 +9°C° 0.3 mm 2 mps 748 mmHg 75%
    13:00 +10°C° 0.3 mm 2 mps 748 mmHg 71%
    14:00 +10°C° 0.3 mm 2 mps 748 mmHg 68%
    15:00 +10°C° 0.1 mm 2 mps 748 mmHg 68%
    16:00 +11°C° 0.1 mm 1 mps 748 mmHg 68%
    17:00 +11°C° 0.1 mm 1 mps 748 mmHg 68%
    18:00 +10°C° 0.1 mm 1 mps 748 mmHg 72%
    19:00 +10°C° 0.1 mm 1 mps 748 mmHg 75%
    20:00 +9°C° 0.1 mm 1 mps 749 mmHg 78%
    21:00 +9°C° 0 mm 1 mps 749 mmHg 80%
    22:00 +9°C° 0 mm 1 mps 749 mmHg 81%
    23:00 +8°C° 0 mm 1 mps 749 mmHg 82%
    Show more